Dewpoint
48 48 48 49 50 50 51 52 52 53 53 54 55 55 55 56 56 56 57 57 57 57 57 57 57 58 57 57 58 58 52 35 31 30 29 31 44 52 54 52 52 54 53 37 34 31 29 30 32 34 24 26 27 25 28 28 31 27 22 21 15 20 21 25 24 26 27 27 26 29 30 24 22 24 22 23 34 25 29 27 23 32 47 56 57 59 60 61
47 47 48 49 50 50 50 51 52 52 53 53 54 54 55 55 55 56 56 56 56 57 57 57 57 58 57 57 58 57 42 35 29 28 29 38 50 52 52 50 52 54 49 35 34 33 29 28 31 32 25 22 30 24 32 26 32 23 19 10 9 20 22 28 24 26 26 24 27 30 28 25 25 25 27 21 24 24 25 25 25 23 31 41 48 56 59 62
47 47 48 48 49 49 49 50 51 52 52 52 53 54 54 55 55 55 55 56 56 56 57 57 57 58 57 57 58 56 43 32 29 26 28 46 52 51 50 50 53 52 38 35 37 34 32 31 32 28 29 22 28 23 31 25 30 24 19 15 17 21 20 21 23 24 28 27 25 25 25 26 28 27 32 25 24 25 26 25 23 21 23 30 37 50 58 61
47 47 48 49 48 49 49 50 51 51 51 51 52 53 54 54 55 55 55 55 56 56 57 57 57 57 57 57 57 41 34 26 21 23 28 49 50 49 51 51 53 46 37 36 37 34 33 29 29 25 25 25 27 30 27 27 23 22 20 16 18 22 17 16 21 28 30 30 27 26 27 27 29 29 27 28 26 26 27 27 27 25 25 29 36 47 56 58
47 47 48 48 48 49 49 50 50 51 51 52 51 52 53 54 54 54 55 55 56 56 56 56 57 58 57 57 52 39 27 10 12 19 24 51 51 49 50 51 52 40 37 36 35 35 31 29 28 28 26 21 28 26 24 28 26 23 21 24 19 20 19 24 23 30 32 31 28 26 26 28 29 28 27 27 26 25 27 28 27 27 30 31 39 50 48 55
47 47 47 48 48 49 49 49 50 50 51 51 52 52 53 53 54 54 54 55 55 55 56 56 57 57 57 55 37 35 21 -7 15 30 50 50 51 49 50 51 51 42 37 35 34 34 30 29 27 26 25 24 25 22 23 29 31 22 26 27 27 21 22 27 29 29 31 29 27 28 29 31 29 29 29 28 27 29 32 33 30 29 30 34 42 41 41 44
47 47 47 47 48 48 48 49 49 50 50 51 51 52 52 53 53 54 54 55 55 55 55 56 57 57 56 52 41 33 24 19 27 31 51 51 51 50 50 47 47 39 37 35 34 33 33 31 28 26 25 22 23 24 27 29 31 25 23 28 29 29 27 29 29 31 30 29 30 31 33 30 30 29 30 29 30 31 32 33 33 31 32 34 33 34 36 38
47 47 47 47 48 48 48 48 49 50 50 50 51 51 52 53 53 53 54 54 55 55 55 56 57 57 55 37 34 30 26 18 20 34 50 48 41 40 44 35 38 38 38 36 34 33 33 32 29 28 25 21 22 27 29 27 28 26 24 28 30 31 32 32 32 32 32 32 33 32 31 31 31 31 30 31 32 34 34 35 35 35 34 33 33 33 34 35
47 47 47 47 48 48 48 48 49 49 50 50 51 51 52 52 52 53 53 54 55 55 55 56 57 56 52 38 32 17 13 24 28 36 40 35 34 32 34 32 38 37 37 38 37 34 32 30 31 29 23 26 28 27 27 23 20 27 27 29 30 31 32 33 32 32 32 33 32 30 31 32 32 33 31 32 33 34 35 35 35 35 35 34 34 34 34 33
47 47 47 47 48 48 48 49 49 49 50 50 50 51 51 52 52 52 53 53 54 55 55 56 56 53 42 35 28 9 15 34 38 40 36 33 33 32 32 36 38 36 36 36 37 35 33 32 32 34 30 28 29 26 27 23 23 29 30 30 31 32 32 32 30 30 31 31 31 29 30 31 32 30 29 32 34 35 34 33 34 34 34 35 35 35 36 35
47 47 47 47 47 48 48 48 49 49 49 50 50 50 51 51 52 52 53 53 54 54 55 55 55 47 38 31 19 9 26 35 40 38 34 34 34 32 32 32 38 37 36 36 36 36 35 35 35 35 28 27 30 28 27 28 31 31 30 31 31 31 31 31 30 30 30 29 31 31 31 31 32 29 29 29 32 35 34 34 34 33 34 33 34 35 35 36
47 47 47 47 47 48 48 48 49 49 49 50 50 50 51 51 51 52 53 53 54 54 54 55 54 41 37 32 25 20 36 40 40 36 36 35 34 33 33 34 37 37 36 35 36 37 37 36 34 29 26 31 27 28 30 32 31 31 31 28 28 28 22 27 30 31 30 26 32 32 30 26 28 28 31 33 35 34 33 33 33 33 33 33 34 34 34 34
46 46 46 47 47 48 48 48 49 49 49 50 50 50 51 51 51 52 53 53 54 54 54 55 52 41 34 26 29 32 39 43 39 32 30 37 35 37 39 38 38 38 38 36 36 37 38 36 35 33 32 29 28 24 28 33 31 32 29 28 25 20 19 28 30 31 27 26 33 30 17 20 26 29 31 33 33 33 32 31 31 31 32 32 33 34 34 34
46 46 47 47 47 48 48 49 49 49 50 50 50 51 52 52 53 52 53 53 53 54 55 53 41 38 30 26 34 37 39 44 35 28 27 36 35 35 34 38 39 39 39 38 38 38 38 37 36 34 35 32 30 35 32 28 29 25 27 25 23 15 11 24 27 27 25 30 32 29 20 19 24 27 30 32 33 32 31 31 31 32 32 32 33 33 33 34
46 46 47 47 47 48 48 49 49 49 49 50 51 52 53 53 53 53 54 54 53 55 53 54 39 30 26 31 37 42 50 32 30 28 29 35 35 34 35 38 39 39 39 39 38 39 38 36 35 32 31 34 33 29 25 23 24 23 7 12 19 16 16 22 27 28 23 28 33 28 26 25 26 29 31 33 32 31 30 31 31 32 32 33 33 33 33 34
46 46 47 47 47 48 49 49 50 50 50 51 52 52 53 53 54 54 53 54 54 54 45 42 39 32 28 27 35 46 34 27 26 28 31 36 36 35 36 38 38 39 38 38 40 39 38 38 34 32 32 31 28 25 19 16 18 20 17 15 16 20 19 21 24 30 30 29 30 28 22 24 25 28 30 32 32 32 31 31 31 32 33 33 33 34 34 34
46 46 47 47 47 48 49 50 50 50 51 51 52 52 53 53 54 54 54 54 48 47 42 37 38 37 23 30 35 30 30 29 31 33 34 37 37 36 37 36 35 37 37 39 39 38 37 34 33 30 28 29 26 19 10 11 13 15 21 18 19 20 21 19 23 26 29 28 26 27 26 27 28 28 29 31 32 31 31 31 31 32 32 33 33 34 34 34
47 46 47 47 47 48 50 50 50 50 51 51 52 51 51 53 52 50 52 47 44 43 42 40 35 23 22 30 22 20 30 31 34 34 34 37 39 38 37 36 35 34 33 34 34 34 34 31 28 24 24 24 26 22 6 -2 9 15 20 22 22 22 23 22 21 21 27 26 26 26 27 27 28 29 29 30 31 31 30 31 31 32 32 33 34 34 34 34
47 47 47 47 47 48 49 50 50 51 51 52 51 52 53 49 42 42 40 38 28 20 20 28 20 9 12 22 27 28 31 33 35 36 37 39 40 39 37 35 33 30 26 27 29 31 30 28 24 21 17 19 24 24 20 19 20 22 23 23 24 24 21 19 22 25 28 27 27 27 26 26 27 27 28 29 29 29 30 31 32 32 33 33 34 34 34 34
48 47 47 47 47 48 49 49 50 51 51 48 43 40 29 22 24 28 33 34 27 22 21 21 26 29 20 28 24 28 33 33 33 33 38 41 40 36 33 31 28 28 27 22 26 29 30 18 14 12 16 21 22 25 25 24 25 25 25 24 25 25 24 24 24 26 28 27 27 27 27 27 27 27 28 28 29 29 29 30 31 32 32 33 33 33 34 34
48 48 47 47 47 48 49 49 50 51 52 42 41 24 18 20 9 14 21 24 34 32 28 29 27 25 20 25 31 34 25 27 35 34 36 41 33 31 25 27 25 20 23 26 26 28 25 13 15 21 21 22 23 24 27 27 26 27 25 24 23 22 19 20 19 25 28 26 25 26 26 26 26 27 27 28 28 27 28 29 30 31 32 33 33 33 34 34
48 48 48 47 47 48 49 49 50 51 49 41 37 26 25 23 27 21 16 12 25 33 32 31 32 28 33 32 33 33 30 23 28 29 35 34 29 16 23 26 22 14 24 25 20 19 17 10 16 21 24 26 26 26 27 27 26 24 22 21 20 18 20 20 22 27 29 27 25 25 25 25 26 26 26 27 28 28 29 30 31 31 32 33 34 34 34 34
49 48 48 47 48 49 48 49 50 51 40 38 36 36 34 35 40 39 20 15 22 30 29 29 29 31 32 35 37 34 21 21 19 25 33 33 30 29 27 25 25 25 24 25 16 16 10 14 21 25 26 27 25 24 23 21 21 21 19 16 16 18 16 15 23 25 27 26 25 26 25 25 26 26 26 27 28 28 30 31 32 33 33 33 33 34 34 34
49 49 48 47 48 49 49 49 50 42 37 39 37 37 40 39 39 37 18 16 17 27 30 31 29 32 29 27 35 30 23 24 21 24 34 31 28 29 25 25 23 21 20 26 22 18 10 15 24 26 27 27 26 23 21 20 18 20 20 19 18 17 17 18 20 25 27 24 26 26 23 22 22 22 23 25 28 30 31 33 34 35 34 35 35 34 35 34
50 48 48 48 49 49 49 49 41 36 38 38 37 38 38 38 39 38 23 19 21 26 32 26 33 33 31 36 36 27 29 29 28 28 33 32 30 24 25 29 19 16 20 25 24 21 21 23 27 27 24 23 22 20 19 20 19 20 21 21 19 19 20 22 24 25 22 18 25 24 14 12 19 22 22 24 28 28 28 31 32 32 33 33 33 34 34 35
50 49 48 48 49 48 48 37 36 37 32 29 35 39 37 34 38 33 24 15 13 26 20 17 32 24 32 28 32 31 25 21 30 35 41 40 35 25 26 23 20 16 21 25 24 22 20 24 27 26 23 20 20 17 18 20 17 17 15 22 21 21 22 24 23 23 17 13 21 25 14 13 19 20 22 24 27 27 27 28 30 31 32 33 34 34 34 35
50 49 48 49 49 48 32 25 39 34 26 26 40 39 38 38 37 33 16 14 9 26 20 23 23 23 29 29 31 25 8 13 35 36 36 38 34 36 19 20 21 26 27 28 19 8 26 26 22 21 20 19 13 14 16 21 19 16 20 24 25 25 24 23 23 25 24 25 24 21 19 17 19 21 23 25 25 24 25 26 27 29 32 33 34 34 34 36
50 49 49 49 49 49 35 39 37 32 22 38 39 36 38 37 34 28 22 1 3 20 21 24 25 32 27 31 30 25 19 21 11 22 36 36 36 29 25 23 20 21 25 18 -4 18 25 19 20 18 14 11 9 14 20 23 21 20 23 25 26 25 25 23 24 25 25 20 15 17 19 15 17 23 23 23 21 21 22 25 25 29 33 33 34 34 35 36
50 49 49 49 48 49 43 41 37 32 36 40 37 37 37 34 30 24 11 3 11 24 24 26 32 30 29 28 24 25 24 25 14 18 31 35 34 28 23 24 23 24 26 21 12 19 20 20 17 15 14 12 14 18 23 24 20 24 26 27 25 25 26 27 25 21 18 16 7 13 22 13 16 19 19 21 22 21 20 21 26 31 33 33 34 34 35 36
50 49 50 49 46 43 41 41 40 38 39 38 37 36 32 28 24 14 3 -1 19 16 24 23 22 20 22 18 17 23 22 22 26 27 30 31 32 33 30 29 27 26 24 24 24 22 21 28 24 20 18 17 16 21 23 24 25 27 25 23 22 21 22 22 21 20 9 6 7 15 21 15 13 18 18 20 19 19 21 22 28 33 34 33 34 35 35 36
50 50 50 49 41 39 40 36 39 39 38 38 36 30 24 22 16 9 -1 18 20 19 21 22 21 25 19 18 16 17 22 24 24 21 20 27 25 27 26 25 24 20 20 17 16 21 20 22 22 25 28 25 27 26 25 25 26 25 20 19 17 12 15 12 1 2 7 4 5 18 22 18 11 16 19 22 21 20 21 26 30 33 33 33 34 35 36 36
50 50 49 47 42 40 34 34 41 41 38 35 31 28 17 0 1 2 12 27 13 22 19 19 23 22 18 20 13 17 17 18 25 24 20 22 23 21 21 8 14 6 14 6 5 16 14 17 21 26 31 29 26 19 20 24 24 24 22 19 6 4 8 -3 3 9 4 7 11 17 20 11 14 18 19 19 20 21 26 30 33 33 32 33 34 35 36 37
51 50 50 47 46 40 38 38 40 40 37 35 28 21 12 6 -8 12 12 20 11 21 19 26 23 19 19 13 13 21 22 15 19 25 22 20 19 21 25 21 20 13 5 12 7 8 10 15 18 24 24 31 24 16 16 16 18 23 19 13 7 7 2 -1 1 1 8 9 10 11 15 15 19 20 22 21 22 28 31 33 34 34 34 35 35 36 37 39
51 50 47 45 42 40 41 40 39 38 35 35 17 19 12 -7 5 31 14 18 14 21 24 21 20 16 17 12 15 19 7 15 22 21 19 14 18 10 17 24 18 14 12 12 -1 1 -6 4 14 17 13 25 25 22 21 16 20 19 21 17 6 4 5 2 3 3 4 11 15 14 9 11 15 19 22 23 28 31 33 32 33 35 35 36 36 36 38 40
51 48 45 42 42 41 42 38 39 39 32 24 18 15 6 2 9 14 19 18 18 21 20 20 12 12 10 14 18 22 16 11 20 17 17 13 10 13 12 21 22 17 12 -2 4 6 -0 5 16 21 19 26 24 26 24 20 18 22 23 19 9 4 9 7 8 6 7 14 15 13 12 13 18 22 23 29 31 32 32 29 33 34 36 36 36 36 37 39
49 44 44 40 41 41 40 39 37 35 27 18 13 3 2 10 6 17 15 25 19 18 18 17 14 9 11 15 12 20 21 14 15 15 12 14 15 13 21 23 17 18 6 -4 4 3 10 4 15 21 26 27 27 28 28 20 3 16 18 5 10 18 16 10 10 10 11 10 12 11 16 19 23 24 27 31 33 31 28 29 32 34 35 35 35 36 37 39
45 43 42 40 40 41 40 40 38 32 25 18 9 3 12 10 20 20 33 19 22 20 14 15 17 12 5 8 12 15 15 15 15 10 12 14 13 15 21 24 23 20 14 14 7 10 2 7 17 23 22 24 27 28 27 26 20 18 6 16 22 20 14 10 3 3 5 7 12 12 15 18 19 19 27 29 32 29 26 29 31 33 34 34 35 36 37 39
43 42 42 40 40 41 41 39 35 30 24 16 9 26 16 6 19 20 24 18 19 20 20 15 16 9 13 11 10 15 16 10 18 9 6 14 7 22 23 24 25 21 21 22 2 0 11 4 10 14 22 25 24 26 23 24 24 21 16 19 11 -0 0 -0 4 3 6 4 10 11 13 17 17 21 26 29 30 28 26 28 28 31 33 33 34 35 37 39
40 40 37 39 40 42 41 39 34 27 20 13 10 10 20 13 24 27 24 21 19 17 13 16 10 7 12 11 16 13 14 14 16 8 4 8 8 18 21 25 25 25 24 19 17 17 15 1 10 19 21 21 21 20 7 16 20 24 24 22 14 13 -0 2 4 2 7 9 9 8 12 15 18 23 28 31 30 29 27 27 29 31 33 34 34 35 37 39
39 37 34 39 40 41 41 36 31 23 14 12 13 13 19 14 19 27 25 20 15 10 12 10 12 10 11 13 14 16 14 13 12 15 7 15 11 17 20 24 23 25 24 24 19 22 14 11 1 16 19 17 7 14 7 13 9 13 16 10 11 9 15 13 10 10 8 4 3 7 10 14 20 27 29 31 31 30 28 29 30 31 33 34 35 36 38 40
36 31 30 39 40 40 37 32 23 20 16 13 11 11 13 14 24 24 27 23 18 17 7 14 10 8 12 11 13 16 13 10 10 9 9 10 11 6 16 24 25 23 23 20 20 20 9 8 6 11 11 11 7 12 16 13 14 15 14 11 14 8 -0 -3 2 12 14 12 7 8 9 15 21 31 33 31 32 30 30 32 30 31 32 33 35 37 40 41
35 30 30 39 39 38 32 25 19 14 12 14 13 14 11 32 21 24 24 21 18 17 16 17 15 15 13 12 16 14 15 11 11 8 10 8 11 10 19 23 23 24 16 15 18 21 13 13 9 10 13 12 15 16 21 20 19 17 16 13 13 7 4 -5 -5 -0 6 12 10 10 12 16 23 29 33 33 30 29 32 32 30 30 32 33 35 38 41 42
35 28 38 38 39 37 28 21 25 22 12 19 16 16 24 25 18 22 23 22 18 17 14 13 17 11 14 10 11 14 14 12 12 13 14 10 9 14 19 22 23 21 20 20 19 21 26 6 4 10 11 14 11 12 14 12 19 17 17 18 16 11 12 11 5 3 5 5 10 13 13 17 25 29 32 33 26 26 28 30 31 31 31 34 35 37 41 42
33 34 35 36 38 36 25 20 19 20 18 15 17 15 24 24 21 20 20 22 16 15 13 12 10 13 12 15 10 9 15 5 9 9 6 12 8 23 21 22 22 20 11 13 12 21 9 11 10 -1 4 11 12 12 14 12 16 12 14 17 18 13 11 6 7 5 7 5 11 11 9 13 21 30 28 27 26 25 24 26 33 30 31 33 35 36 40 42
32 31 33 34 38 35 26 19 17 20 21 16 15 14 19 20 24 22 22 21 21 17 13 11 12 15 14 17 16 16 14 6 5 8 11 12 12 24 23 21 24 20 25 27 28 20 12 10 2 -2 -5 -1 4 7 9 6 8 12 14 15 18 15 13 11 5 4 6 5 10 9 11 17 19 18 18 16 17 21 26 25 30 33 32 32 34 36 39 41
30 27 30 30 28 32 30 25 23 19 20 17 12 16 19 17 22 26 22 19 22 19 17 15 17 20 16 14 14 13 11 14 8 6 11 11 16 25 24 18 22 24 29 32 26 14 5 9 4 8 7 6 10 13 13 9 6 3 4 14 16 14 10 9 7 3 6 4 11 15 14 14 16 17 13 13 16 18 22 21 24 28 31 33 34 35 37 41
31 27 29 24 28 28 28 25 22 20 19 17 14 15 15 14 21 21 22 15 20 17 17 16 15 12 11 13 15 14 13 13 14 12 12 13 15 23 24 25 25 28 32 27 27 15 6 7 12 6 8 11 9 8 9 12 6 7 6 8 13 15 13 12 9 8 10 -1 5 10 14 13 13 12 11 13 15 18 23 21 21 27 31 32 34 36 36 40
30 30 31 30 27 25 26 26 27 24 22 17 16 18 14 12 16 15 21 23 22 21 15 14 15 15 15 14 12 11 14 11 12 11 16 15 23 24 23 23 25 28 29 23 24 17 9 5 5 9 10 12 13 13 13 13 12 11 10 10 11 13 12 12 12 12 7 4 4 8 13 11 11 12 12 15 17 19 22 21 21 29 33 33 34 34 35 36
33 29 30 30 23 22 26 25 27 27 24 20 16 17 14 13 13 17 19 20 20 19 18 13 16 17 16 18 11 9 13 6 12 12 13 14 20 20 18 18 21 24 24 22 20 13 16 9 5 8 8 11 13 13 13 12 11 12 13 14 13 12 13 14 13 9 13 13 14 14 14 13 14 15 15 15 18 22 22 22 23 20 26 32 32 33 33 35
31 30 27 28 26 23 26 25 26 26 23 25 18 16 15 14 13 18 20 20 19 20 19 13 14 18 19 19 14 10 14 11 11 11 13 16 12 18 19 19 20 24 22 21 20 16 12 8 16 6 6 8 6 11 11 13 9 8 12 12 13 14 13 13 10 9 8 11 13 13 13 13 15 16 16 18 23 23 21 14 15 18 21 25 28 32 33 34
37 31 31 30 24 22 25 24 25 24 22 22 19 16 17 17 16 18 18 22 13 16 17 15 17 18 20 17 15 14 16 17 19 16 17 16 12 18 16 12 24 22 21 17 16 13 11 7 3 1 2 7 3 5 7 4 7 9 9 9 10 11 9 10 12 13 11 12 8 10 10 13 15 21 24 23 16 13 13 15 16 18 19 20 21 24 31 32
37 35 32 33 25 29 23 23 23 23 20 20 19 17 15 16 18 19 14 19 23 24 20 19 20 17 17 16 17 15 19 23 21 22 20 22 22 21 18 18 23 23 22 21 17 17 13 8 6 2 0 3 5 4 5 4 4 12 14 12 8 11 12 9 11 14 14 13 10 -0 8 13 18 19 12 9 10 10 11 13 18 17 19 19 19 21 23 33